Cloud_Cover
0 0 0 0 0 0 58 100 100 100 100 100 100 3 0 0 53 42 40 100 66 78 24 4 4 4 1 1 4 4 4 84 70 5 6 17 80 18 56 77 100 83 96 100 20 10 8 5 5
0 0 0 0 0 2 100 100 100 100 100 100 100 99 48 5 5 28 56 100 100 100 34 23 12 5 4 5 8 36 4 26 84 43 100 100 100 100 92 94 68 6 69 96 81 28 7 3 9
0 0 0 0 0 0 77 100 100 93 66 100 100 100 83 38 79 10 5 99 100 100 100 100 22 71 21 0 3 0 4 25 18 12 45 71 50 47 48 12 8 20 22 60 15 5 0 4 2
0 0 0 0 59 5 30 97 100 100 100 100 100 100 6 2 4 100 98 70 100 100 100 100 49 5 0 5 38 78 10 34 30 5 58 99 100 100 99 44 61 100 100 80 5 0 0 0 0
0 0 0 0 4 41 11 100 87 87 62 54 81 4 2 51 0 97 100 100 100 68 98 63 5 100 89 95 94 100 100 100 86 50 70 88 100 100 100 100 100 4 2 3 1 0 0 0 0
0 0 0 0 82 65 2 85 54 52 95 37 83 2 3 0 0 1 88 100 100 100 94 100 100 100 100 100 100 100 100 100 100 100 92 83 100 100 100 96 5 11 42 4 3 1 5 0 1
0 0 0 0 3 100 77 13 96 7 86 78 100 37 1 0 0 0 0 5 64 100 100 100 100 100 100 100 96 98 100 61 50 58 100 100 49 100 100 99 11 4 5 5 3 5 2 0 0
0 0 0 0 8 98 86 96 55 100 97 23 2 0 0 0 0 4 0 0 0 0 0 18 26 96 100 80 52 58 97 100 100 100 100 100 100 100 97 1 5 5 5 5 5 0 0 0 0
0 0 0 0 5 24 36 87 62 100 99 74 0 0 0 0 0 26 0 0 0 0 0 0 0 0 0 0 0 0 0 0 27 38 84 60 0 0 0 4 3 5 2 0 0 0 0 0 0
0 0 0 0 5 67 100 100 87 16 43 21 0 0 1 5 8 2 0 0 0 0 0 0 0 0 0 0 0 0 0 3 5 5 5 2 0 4 5 6 5 0 0 0 0 0 0 0 0
0 0 0 0 3 42 82 20 80 50 80 13 100 37 100 100 42 4 0 36 3 0 0 0 0 0 0 0 0 0 0 0 0 0 2 8 12 5 0 0 0 0 0 0 0 0 0 0 0
0 0 0 0 2 38 100 100 92 71 14 1 29 98 100 100 100 7 0 10 5 0 0 0 0 0 0 0 0 0 0 0 0 0 0 0 0 0 0 0 0 0 0 0 0 0 0 0 0
0 0 0 0 0 0 9 96 80 100 80 89 100 100 100 100 100 100 58 84 2 0 0 0 0 4 0 0 0 0 3 0 5 0 0 0 0 0 0 0 0 0 0 0 0 0 0 0 0
0 0 0 0 0 0 0 1 32 58 7 100 100 100 76 100 100 100 100 8 0 0 0 0 0 0 0 0 0 5 5 5 3 0 0 0 0 0 0 0 0 0 0 0 0 0 0 0 0
0 0 0 0 0 0 0 0 0 0 4 93 100 92 100 100 100 100 100 5 0 0 0 0 0 0 5 5 14 5 97 43 5 5 0 4 2 5 0 0 0 0 0 0 0 0 0 0 0
0 0 0 0 0 0 0 0 0 0 4 99 48 100 100 100 100 100 100 63 5 0 0 0 0 11 76 3 4 84 100 98 5 3 13 5 6 5 0 0 0 0 0 0 0 0 0 0 0
0 0 0 0 0 0 0 0 0 0 7 99 10 100 100 100 100 100 100 100 5 0 0 0 0 1 4 2 25 100 80 5 5 76 26 5 6 0 0 0 0 0 0 0 0 0 0 0 0
0 0 0 0 0 0 0 0 0 0 0 88 100 100 100 100 100 100 100 100 53 0 0 0 0 0 0 0 4 100 100 78 80 52 98 26 1 0 0 0 0 0 0 0 0 0 0 0 0
0 0 0 0 0 0 0 0 0 0 0 0 21 100 100 100 100 100 100 100 4 1 4 1 0 0 0 1 7 100 100 100 100 20 5 30 1 0 0 0 0 0 0 0 0 0 0 0 0
0 0 0 0 0 0 0 0 0 0 0 0 0 29 95 48 100 100 100 100 98 80 5 4 0 0 0 0 5 5 45 41 7 7 73 7 4 0 0 0 0 0 0 0 0 0 0 0 0
0 0 0 0 0 0 0 0 0 0 0 4 0 0 0 29 100 100 100 100 100 30 4 2 1 0 0 1 5 34 74 100 100 100 16 5 0 0 0 0 0 0 0 0 0 0 0 0 0
0 0 0 0 0 0 0 0 0 0 0 0 0 0 0 0 26 100 100 100 100 0 4 5 5 0 0 3 6 9 12 98 13 8 5 0 0 0 0 0 0 0 0 0 0 0 0 0 0
0 0 0 0 0 0 0 0 0 0 0 0 2 0 0 0 4 4 0 5 0 21 81 22 5 0 0 13 13 47 5 5 0 4 0 0 0 0 0 0 0 0 0 0 0 0 0 0 0
0 0 0 0 0 0 0 0 0 0 1 80 38 0 26 75 1 0 34 71 100 100 100 92 16 23 44 5 3 5 5 5 3 1 0 0 0 0 0 0 0 0 0 0 1 0 0 0 0
1 0 0 5 2 1 5 3 95 46 72 82 69 100 100 96 100 93 41 88 100 100 100 100 100 50 100 54 8 45 20 4 3 1 1 0 0 0 0 0 0 0 0 5 5 0 0 0 0
28 97 46 33 5 82 94 71 100 100 91 100 97 10 76 99 100 100 96 100 100 100 100 100 100 100 100 100 100 100 100 69 50 7 31 5 0 0 0 0 0 0 5 0 5 3 0 0 0
52 4 94 63 3 3 98 61 98 97 100 19 95 95 12 5 5 100 98 100 100 100 100 100 100 100 100 100 100 100 100 100 100 100 49 7 31 0 0 0 0 0 3 5 5 0 0 0 0
42 1 2 30 0 26 2 0 5 100 100 100 100 92 9 15 20 2 0 99 100 100 100 100 100 100 100 100 100 100 100 100 100 100 100 99 29 0 0 0 0 3 5 5 5 0 0 0 0
3 71 5 1 0 10 3 3 13 79 96 100 100 100 30 96 100 99 83 100 100 100 100 100 100 100 100 100 100 100 100 100 95 97 95 7 4 0 0 0 5 5 5 5 5 1 0 0 0
5 46 5 0 0 5 82 100 100 8 86 100 4 100 100 100 100 100 49 100 100 100 100 100 100 100 100 100 100 100 100 100 100 100 100 90 5 5 5 5 5 5 3 5 1 4 36 0 0